Regional Weather Roundup
Issued by NWS

Home | Current Version | Previous Version | Graphics & Text | Print | Product List | Glossary On
Versions: 1 2 3 4 5 6 7 8 9 10 11 12 13 14 15 16 17 18 19 20 21 22 23 24 25 26 27 28
000
ASUS45 KPSR 240110
RWRAZ

ARIZONA HOURLY REGIONAL WEATHER ROUNDUP
NATIONAL WEATHER SERVICE PHOENIX AZ
600 PM MST SUN JUL 23 2017

NOTE: FAIR INDICATES FEW OR NO CLOUDS BELOW 12,000 FEET WITH NO
SIGNIFICANT WEATHER AND/OR OBSTRUCTIONS TO VISIBILITY.

AZZ001>003-036-240200-
NORTHWEST ARIZONA

CITY           SKY/WX    TMP DP  RH WIND       PRES   REMARKS
KINGMAN        PTSUNNY   79  62  56 SE22G33   29.97R
$$

AZZ004>008-015-016-018-240200-
NORTH CENTRAL ARIZONA

CITY           SKY/WX    TMP DP  RH WIND       PRES   REMARKS
GRAND CANYON   CLOUDY    71  55  56 W5        30.20S
WILLIAMS       CLOUDY    68  63  83 CALM      30.21R
PRESCOTT       PTSUNNY   72  60  66 S8        30.09F
FLAGSTAFF      LGT RAIN  61  59  93 S6        30.22S
PAYSON         CLOUDY    68  64  88 CALM      30.14R
PAGE           PTSUNNY   95  50  21 SE18G24   29.93S
$$

AZZ009>014-017-240200-
NORTHEAST ARIZONA

CITY           SKY/WX    TMP DP  RH WIND       PRES   REMARKS
WINSLOW        CLOUDY    83  58  42 W10       30.04S
SAINT JOHNS    CLOUDY    82  54  37 W3        30.08F
WINDOW ROCK    PTSUNNY   78  51  38 N9        30.18R
SHOW LOW       CLOUDY    72  59  64 S12       30.18R
$$

AZZ540-542>544-546-548-240200-
GREATER PHOENIX AREA

CITY           SKY/WX    TMP DP  RH WIND       PRES   REMARKS
PHOENIX        PTSUNNY  102  60  25 NW12      29.73S HX 103
BUCKEYE        SUNNY    100  61  27 SW7       29.75R HX 101
GLENDALE       PTSUNNY  102  61  25 SW9       29.76R HX 103
LUKE AFB       MOSUNNY  101  61  26 SW8       29.74R HX 102
DEER VALLEY    SUNNY     99  63  30 MISG      29.77R HX 101
SCOTTSDALE     SUNNY    100  60  26 VRB3      29.78R HX 100
MESA-FALCON    PTSUNNY  100  63  28 W14       29.76S HX 102
MESA-GATEWAY   PTSUNNY  100  63  28 N5        29.77S HX 102
CHANDLER       PTSUNNY  102  61  25 SW8       29.74F HX 103
$$

AZZ539-553-240200-
SOUTHWEST MARICOPA COUNTY AND PINAL COUNTY

CITY           SKY/WX    TMP DP  RH WIND       PRES   REMARKS
CASA GRANDE    CLOUDY    96  68  39 SW13      29.80R HX 101
GILA BEND      FAIR     102  59  24 W9G17     29.73S HX 102
$$

AZZ503-504-507>509-240200-
SOUTHEAST ARIZONA

CITY           SKY/WX    TMP DP  RH WIND       PRES   REMARKS
TUCSON         LGT RAIN  75  71  87 S8        29.96F
DAVIS-MONTHAN  CLOUDY    76  74  96 S5        29.95F
RYAN FIELD     SUNNY     75  73  94 E6        29.95F
NOGALES        CLOUDY    74  66  76 S6        30.04F
SIERRA VISTA   LGT RAIN  68  66  94 W6        30.08F
DOUGLAS        LGT RAIN  72  69  90 SE9       30.06R
SAFFORD        PTSUNNY   74  67  78 N6        29.96R
$$

AZZ532-240200-
SOUTHWEST ARIZONA

CITY           SKY/WX    TMP DP  RH WIND       PRES   REMARKS
YUMA           SUNNY     97  61  30 S15       29.70S
$$

CAZ041-043-047-048-061-525>527-560>570-240200-
SOUTHERN CALIFORNIA

CITY           SKY/WX    TMP DP  RH WIND       PRES   REMARKS
DOWNTOWN L.A.  SUNNY     79  64  60 W3        29.81S
L.A. AIRPORT   MOSUNNY   72  65  78 W13       29.83S
SAN DIEGO      PTSUNNY   73  65  75 SW9       29.87S
BURBANK        SUNNY     84  60  44 S12       29.81S
ONTARIO        MOSUNNY   87  61  41 SW14G22   29.81R
RIVERSIDE      SUNNY     87  62  43 W15G24    29.80R
PALM SPRINGS   SUNNY    106  63  24 VRB7      29.66F HX 109
EL CENTRO NAS  PTSUNNY  103  64  28 E15       29.64F HX 106
IMPERIAL       PTSUNNY  102  69  34 E18       29.63S HX 109
BLYTHE         MOSUNNY  102  62  26 S17       29.68S HX 104
NEEDLES        SUNNY    110  56  17 S16       29.66F HX 109
$$

NVZ020-UTZ003-240200-
SOUTHERN NEVADA-UTAH

CITY           SKY/WX    TMP DP  RH WIND       PRES   REMARKS
LAS VEGAS      MOSUNNY  107  53  16 SE7       29.72F HX 105
SALT LAKE CITY CLOUDY    94  38  14 CALM      29.96F
$$

NMZ009-TXZ055-240200-
NEW MEXICO-WEST TEXAS

CITY           SKY/WX    TMP DP  RH WIND       PRES   REMARKS
ALBUQUERQUE    PTSUNNY   81  54  39 E20G25    30.13R
EL PASO        LGT RAIN  78  68  71 N8        29.99F
$$


........................KEY........................
SKY/WX - SKY CONDITION/WEATHER
TMP    - TEMPERATURE IN FAHRENHEIT
DP     - DEW POINT IN FAHRENHEIT
RH     - RELATIVE HUMIDITY IN PERCENT
WIND   - DIRECTION AND SPEED IN MILES PER HOUR (MPH)
VRB    - VARIABLE WIND DIRECTION
PRES   - MEAN SEA LEVEL PRESSURE IN INCHES OF MERCURY
         F - FALLING PRESSURE   R - RISING PRESSURE
         S - STEADY PRESSURE
VSB    - VISIBILITY IN MILES
HX     - HEAT INDEX IN FAHRENHEIT
WCI    - WIND CHILL INDEX IN FAHRENHEIT
TC     - TEMPERATURE IN CELSIUS WHICH IS ALSO KNOWN AS
         TEMPERATURE IN CENTIGRADE
AFB    - AIR FORCE BASE
         LUKE AFB IS LUKE AIR FORCE BASE
         DAVIS-MONTHAN IS DAVIS-MONTHAN AIR FORCE BASE
NAS    - NAVAL AIR STATION
         EL CENTRO NAS IS EL CENTRO NAVAL AIR STATION
N/A    - NOT AVAILABLE





USA.gov is the U.S. government's official web portal to all federal, state and local government web resources and services.